Wetbulb
58.71 58.81 59.17 59.51 59.69 60.10 60.71 61.13 61.31 61.61 61.83 62.01 62.08 62.06 61.47 61.29 60.64 57.87 52.42 56.06 57.96 61.87 59.68 52.88 51.75 50.55 50.45 48.65 48.26 45.06 37.54 35.10 38.02 39.48 41.13 43.71 42.85 44.64 45.41 45.06 44.59 45.33 43.83 45.53 48.49
58.28 58.47 58.73 59.06 59.26 59.60 60.13 60.66 60.88 61.20 61.66 61.84 61.81 62.02 61.43 60.64 56.35 53.61 59.22 62.36 63.35 61.85 53.22 49.72 48.24 48.43 45.31 46.28 46.78 42.21 37.03 38.16 41.19 41.46 41.67 44.44 43.42 44.67 43.18 42.78 42.36 43.11 45.52 47.51 47.67
58.20 58.42 58.64 58.79 58.96 59.26 59.62 60.16 60.74 61.03 61.49 61.68 61.69 61.49 60.77 58.72 52.52 51.62 61.71 62.74 63.07 59.93 54.13 51.73 50.33 47.81 43.85 44.43 43.18 42.12 38.73 41.22 43.11 45.24 45.68 44.71 43.53 44.93 43.36 40.10 42.70 43.27 44.31 45.69 45.33
58.98 58.64 58.54 58.44 58.67 58.95 59.28 59.88 60.44 60.74 61.04 61.48 60.82 60.75 59.50 55.14 42.53 54.74 61.39 62.21 62.60 55.14 52.95 50.35 48.18 43.51 41.70 41.58 45.57 38.74 43.37 43.45 46.47 46.29 45.42 43.41 44.93 42.95 42.80 42.10 44.52 44.65 45.46 44.66 44.04
58.97 58.77 58.58 58.31 58.20 58.65 59.13 59.33 60.07 60.36 60.90 60.86 60.61 60.14 54.93 49.03 50.42 56.92 60.39 60.05 56.12 52.94 50.94 49.25 45.31 44.35 41.08 42.40 44.00 41.23 42.68 44.59 46.18 45.38 44.05 45.90 43.13 42.72 41.91 42.96 44.60 45.31 45.13 43.27 42.89
58.67 58.33 58.17 58.18 58.37 58.52 58.88 59.10 59.35 59.95 60.64 60.39 60.44 59.74 52.12 44.59 55.98 55.82 56.01 55.07 54.47 51.51 49.81 49.16 46.35 46.51 43.51 42.61 41.73 43.38 43.87 43.98 45.39 45.51 44.82 43.39 42.03 42.73 42.09 42.52 43.20 44.21 42.43 41.80 42.55
57.71 58.24 58.01 58.00 58.39 58.57 58.80 58.91 58.95 59.50 60.20 60.07 60.44 57.06 49.51 49.32 55.05 53.57 53.99 51.92 52.30 52.08 50.13 50.22 49.15 46.07 45.26 42.79 45.10 43.98 39.77 42.21 43.19 44.38 43.29 43.80 40.37 41.33 42.76 42.61 42.31 42.20 41.08 41.43 41.85
57.66 57.15 57.89 57.95 58.05 58.25 58.54 58.87 58.91 59.01 59.93 59.92 59.95 53.54 46.26 53.98 54.31 53.75 52.73 51.12 51.69 51.67 51.53 50.97 50.04 47.94 45.69 45.19 43.22 39.42 38.36 35.60 42.19 43.44 42.70 41.90 36.61 42.94 42.28 41.91 40.60 40.36 39.14 40.54 41.07
57.38 57.07 57.55 57.81 57.65 57.77 58.27 58.58 58.24 58.89 60.18 59.99 53.02 50.64 46.13 55.29 52.69 54.61 51.98 50.14 50.38 50.44 49.65 52.07 49.47 44.70 43.44 38.81 36.19 36.51 32.86 35.56 39.97 42.68 41.50 39.73 37.55 40.68 41.67 41.58 39.93 39.16 38.68 39.60 39.06
57.38 57.02 57.28 57.61 57.50 57.60 58.06 58.61 57.96 57.80 58.05 56.86 54.93 44.74 48.19 47.34 51.30 52.57 51.16 51.44 48.70 47.68 46.59 45.77 43.36 38.89 38.83 36.00 31.16 34.07 33.88 37.21 36.69 40.94 39.77 37.65 37.83 40.35 41.45 40.94 40.03 39.01 38.66 38.83 38.53
57.59 57.32 57.35 57.44 57.55 57.99 56.38 53.89 50.03 48.15 50.37 44.83 46.65 46.53 47.34 48.45 51.43 49.90 51.24 49.64 48.53 45.08 39.58 42.24 37.22 34.92 37.71 38.78 39.53 38.03 36.05 35.44 38.69 41.45 39.02 37.90 38.21 40.13 40.94 39.62 38.73 38.39 38.81 39.16 39.01
57.91 57.75 57.64 57.64 57.88 58.04 54.31 50.19 49.84 49.27 43.99 51.06 50.49 49.95 48.95 48.98 44.56 48.10 50.11 44.92 43.70 39.29 41.33 38.73 35.50 41.25 42.35 41.46 40.03 38.62 36.44 35.92 39.14 40.52 38.70 37.61 37.55 40.43 40.28 40.95 41.43 41.58 40.21 39.80 36.39
57.98 57.57 57.69 57.71 57.72 56.10 52.03 51.83 53.26 51.44 43.67 46.76 50.46 49.55 47.30 47.93 45.06 45.27 47.51 44.54 41.18 39.03 39.41 36.83 40.65 44.09 42.29 40.56 39.28 37.84 36.38 35.37 37.46 37.85 37.44 35.16 34.56 37.44 41.02 41.37 41.29 42.62 42.37 41.03 37.44
58.16 57.50 57.39 57.46 54.32 53.99 50.86 54.35 55.05 52.87 34.30 38.46 43.44 48.64 46.68 47.43 43.07 48.92 48.93 45.57 41.39 39.38 39.88 39.32 43.41 42.10 40.14 39.55 40.57 35.39 40.31 39.90 38.55 34.99 30.59 35.57 29.79 35.43 38.31 39.69 39.86 41.95 39.73 39.66 37.23
56.33 57.52 57.27 57.23 53.06 50.85 53.21 55.62 54.86 50.61 21.04 38.97 43.64 50.23 46.88 45.42 43.88 43.05 46.25 43.64 39.62 40.09 41.09 38.05 39.23 38.70 38.88 39.27 41.18 37.68 39.57 37.89 36.83 33.30 31.25 31.70 28.97 33.69 39.27 39.61 42.43 41.71 40.93 39.18 37.54
55.74 56.90 56.99 56.15 55.12 54.10 55.94 56.39 53.99 38.16 24.65 37.87 43.09 41.94 41.89 43.62 41.43 42.48 42.98 44.54 44.05 40.70 39.68 38.98 40.73 41.04 40.67 39.67 41.48 40.37 37.80 36.75 34.72 32.86 26.50 33.19 31.83 32.87 37.60 40.56 42.38 39.90 37.76 36.93 36.62
55.13 55.63 55.85 56.83 51.25 56.26 56.74 52.34 34.12 28.97 40.12 36.89 38.35 41.22 40.63 39.77 38.33 39.39 37.45 37.44 37.40 33.94 34.02 37.11 38.03 39.76 41.06 37.38 38.91 38.51 34.72 27.27 25.97 24.53 26.69 32.66 30.36 37.01 38.92 40.62 41.37 40.05 37.48 36.41 36.73
54.02 54.99 54.78 56.58 56.80 56.44 54.24 40.28 28.97 34.91 36.88 41.20 40.53 39.60 37.09 39.34 37.25 37.27 35.31 34.04 37.90 36.98 35.00 33.40 29.99 37.87 40.38 39.47 37.01 35.39 35.09 28.54 21.76 23.55 25.84 29.11 27.04 34.31 39.64 39.71 38.31 40.22 40.04 37.57 36.35
53.15 52.55 53.18 55.82 57.14 55.88 48.73 31.77 34.28 36.34 39.46 39.10 39.39 36.01 35.59 38.31 36.49 35.17 33.21 33.83 37.65 38.63 35.41 33.18 33.64 38.69 38.57 41.06 41.89 34.09 32.79 38.82 31.04 18.94 22.10 29.17 32.38 37.39 36.31 36.65 35.73 36.77 37.32 35.88 35.68
46.72 50.08 49.46 56.30 57.03 52.87 44.81 35.39 37.30 42.15 43.09 42.42 37.46 38.30 34.17 35.82 34.51 33.94 33.53 37.57 38.16 41.24 40.92 39.32 33.39 35.59 35.29 39.79 37.95 36.65 38.07 30.36 29.65 19.85 18.83 27.05 28.34 33.00 33.81 36.04 34.86 34.72 34.76 34.85 35.12
46.46 43.19 49.45 56.10 55.44 47.63 38.97 39.92 40.27 43.59 44.32 41.54 39.21 38.56 37.69 35.79 35.52 33.08 34.69 38.01 40.92 39.67 42.29 40.10 38.84 31.19 34.15 33.20 34.31 34.17 32.43 33.66 34.03 29.28 22.82 21.54 30.34 36.25 38.81 38.93 34.94 36.16 36.52 35.50 35.37
44.80 37.96 48.84 55.32 43.41 44.54 40.58 42.74 44.26 42.88 44.35 43.86 43.91 41.76 39.54 38.71 36.75 33.64 34.15 38.33 42.26 41.90 37.13 41.04 38.38 28.09 31.44 34.64 35.43 35.77 35.26 33.85 29.53 26.91 27.83 26.93 33.14 36.32 36.22 38.07 37.16 36.81 37.53 37.80 37.46
40.64 39.00 48.51 51.37 37.11 37.98 42.88 41.98 44.37 42.40 42.40 42.51 42.15 43.31 43.17 40.72 36.76 37.26 36.83 41.76 42.59 41.49 38.23 41.08 35.58 28.69 29.15 31.73 33.58 33.37 35.65 38.71 36.67 30.64 30.84 25.52 32.55 35.05 35.75 35.74 35.93 35.13 35.87 36.95 36.39
40.59 34.51 40.12 43.67 43.29 40.76 39.61 40.00 40.32 45.20 43.70 43.99 43.52 43.86 41.90 40.53 42.67 38.96 38.13 40.87 41.42 42.65 43.48 43.96 36.34 34.87 32.41 33.69 34.73 30.32 32.47 35.38 36.54 30.90 30.76 33.00 36.11 32.82 34.19 35.49 34.91 35.01 35.69 35.36 36.07
39.78 35.42 36.92 35.41 36.88 39.82 39.69 38.25 36.73 38.42 43.73 44.62 41.77 41.49 41.11 38.10 39.67 38.93 40.89 38.19 39.81 42.00 42.04 41.88 34.55 34.19 37.53 36.80 35.23 32.78 32.85 34.47 33.63 35.42 32.76 36.51 36.06 39.70 38.75 36.65 37.32 35.98 34.82 34.86 35.20
35.61 33.42 36.26 35.08 38.44 37.46 37.90 36.23 36.31 36.89 40.26 40.06 40.28 42.08 41.92 39.43 40.45 38.01 40.57 40.72 37.95 37.05 39.70 39.62 34.01 35.63 34.30 35.11 35.54 34.31 33.90 33.64 35.03 35.92 36.36 37.13 36.58 40.44 41.89 40.80 36.07 36.67 36.36 35.69 35.53
41.71 38.24 38.16 35.28 33.49 32.82 34.78 37.02 36.42 39.22 40.23 40.90 40.16 40.05 40.14 42.07 44.87 45.62 45.30 43.90 42.06 37.30 35.76 36.62 34.95 33.10 32.08 33.93 34.12 31.42 35.31 36.84 37.16 36.63 36.09 32.15 37.95 37.14 38.65 38.89 35.94 35.30 36.79 36.86 37.04
MSLP
1018.95 1019.07 1019.11 1019.12 1019.24 1019.19 1019.15 1018.93 1018.74 1018.48 1018.11 1017.86 1017.63 1017.31 1016.90 1016.44 1015.68 1015.79 1015.72 1015.62 1015.43 1015.07 1014.92 1014.70 1014.32 1014.10 1014.15 1014.68 1014.90 1015.32 1016.53 1016.88 1016.29 1015.78 1015.76 1015.50 1015.55 1015.69 1016.17 1017.05 1018.19 1019.17 1019.66 1020.10 1020.26
1019.09 1019.04 1019.16 1019.16 1019.23 1019.29 1019.14 1019.05 1018.85 1018.56 1018.22 1017.95 1017.63 1017.20 1016.81 1016.56 1016.25 1015.77 1015.59 1015.37 1015.13 1015.08 1014.97 1014.88 1014.58 1014.27 1014.61 1014.92 1015.28 1015.88 1016.83 1016.59 1016.18 1015.88 1015.66 1015.63 1015.77 1016.06 1016.72 1017.81 1019.14 1020.00 1020.27 1020.38 1020.59
1019.13 1019.21 1019.09 1019.18 1019.18 1019.20 1019.23 1019.11 1018.92 1018.63 1018.31 1017.94 1017.49 1017.10 1016.71 1016.67 1016.42 1015.71 1015.32 1015.19 1015.04 1015.06 1014.96 1014.78 1014.61 1014.53 1014.86 1015.08 1015.49 1015.89 1016.37 1016.27 1016.18 1015.99 1015.71 1015.77 1016.07 1016.30 1017.05 1018.49 1019.07 1019.78 1020.59 1020.89 1021.26
1019.12 1019.22 1019.31 1019.18 1019.24 1019.23 1019.19 1019.09 1018.93 1018.64 1018.33 1017.94 1017.44 1016.90 1016.45 1016.41 1016.33 1015.50 1015.30 1015.15 1015.10 1014.99 1014.93 1014.80 1014.73 1014.84 1015.15 1015.52 1015.61 1016.05 1016.03 1016.10 1016.17 1016.08 1016.12 1016.22 1016.31 1016.76 1017.52 1018.76 1019.12 1019.66 1020.39 1021.02 1021.62
1019.06 1019.14 1019.32 1019.30 1019.18 1019.17 1019.13 1019.05 1018.93 1018.64 1018.33 1017.97 1017.48 1016.84 1016.21 1016.16 1015.57 1015.24 1015.26 1015.25 1015.19 1015.08 1015.06 1014.97 1014.92 1014.97 1015.35 1015.62 1015.85 1016.20 1016.19 1016.13 1016.30 1016.35 1016.48 1016.56 1016.85 1017.35 1018.39 1019.18 1019.63 1020.15 1020.79 1021.50 1021.86
1019.08 1019.09 1019.18 1019.30 1019.35 1019.08 1019.05 1018.99 1018.80 1018.58 1018.30 1018.03 1017.57 1016.93 1016.70 1016.20 1015.06 1015.08 1015.16 1015.35 1015.23 1015.20 1015.10 1015.08 1015.27 1015.24 1015.48 1015.74 1016.08 1016.36 1016.45 1016.44 1016.46 1016.59 1016.72 1017.06 1017.41 1017.85 1018.52 1019.25 1019.95 1020.47 1021.17 1021.71 1021.97
1018.95 1019.08 1019.13 1019.17 1019.29 1019.23 1018.99 1018.87 1018.67 1018.47 1018.27 1018.01 1017.68 1017.41 1016.80 1015.82 1015.12 1015.05 1015.23 1015.34 1015.29 1015.28 1015.28 1015.40 1015.40 1015.50 1015.77 1016.11 1016.37 1016.51 1016.85 1016.75 1016.54 1016.73 1017.06 1017.30 1017.91 1017.85 1018.29 1019.33 1020.03 1020.69 1021.23 1021.76 1022.05
1018.77 1018.86 1019.01 1019.11 1019.05 1019.13 1019.02 1018.80 1018.59 1018.35 1018.17 1017.91 1017.79 1017.56 1016.50 1015.31 1015.24 1015.33 1015.28 1015.47 1015.36 1015.34 1015.51 1015.57 1015.60 1015.95 1016.25 1016.62 1016.80 1017.07 1017.31 1017.36 1016.47 1016.72 1017.27 1017.62 1017.67 1017.55 1018.31 1019.08 1020.08 1020.70 1021.22 1021.63 1022.03
1018.54 1018.79 1018.85 1018.96 1018.90 1018.90 1018.93 1018.73 1018.45 1018.26 1017.94 1017.81 1017.74 1017.52 1016.41 1015.48 1015.42 1015.24 1015.33 1015.60 1015.69 1015.81 1015.83 1015.85 1015.97 1016.61 1017.01 1017.46 1017.94 1017.85 1017.83 1017.62 1016.98 1016.88 1017.40 1017.97 1017.96 1017.95 1018.54 1019.11 1019.90 1020.41 1021.06 1021.48 1021.97
1018.18 1018.56 1018.72 1018.68 1018.81 1018.74 1018.74 1018.56 1018.17 1018.30 1017.55 1017.67 1017.63 1017.78 1016.17 1015.56 1015.31 1015.31 1015.43 1015.64 1015.95 1016.28 1016.48 1016.53 1016.92 1017.52 1017.96 1018.26 1018.48 1018.19 1018.14 1017.55 1017.21 1017.23 1017.39 1018.09 1018.00 1018.10 1018.54 1019.00 1019.33 1019.83 1020.51 1021.07 1021.48
1017.74 1018.10 1018.40 1018.44 1018.67 1018.69 1018.72 1018.38 1018.58 1018.45 1017.81 1016.52 1016.32 1016.01 1015.70 1015.75 1015.51 1015.54 1015.55 1015.87 1016.20 1016.74 1017.13 1017.25 1017.75 1017.82 1017.58 1017.88 1017.67 1017.79 1017.90 1017.68 1017.09 1016.88 1017.47 1017.71 1017.68 1017.66 1017.91 1018.57 1018.84 1019.38 1019.70 1020.21 1020.73
1017.28 1017.59 1018.03 1018.25 1018.54 1018.66 1018.71 1018.54 1017.59 1017.57 1017.03 1015.78 1015.64 1015.54 1015.22 1015.41 1015.85 1015.82 1015.68 1016.26 1016.63 1017.06 1017.47 1017.97 1017.57 1017.03 1017.41 1017.69 1017.92 1017.86 1017.88 1017.54 1017.17 1017.05 1017.61 1017.57 1017.54 1017.11 1017.24 1017.13 1017.18 1017.64 1018.42 1019.18 1020.33
1016.58 1016.96 1017.65 1018.05 1018.40 1018.72 1018.38 1017.74 1017.18 1017.20 1017.20 1015.11 1014.34 1014.05 1014.39 1014.96 1015.16 1015.50 1015.86 1016.06 1016.49 1017.22 1017.37 1017.30 1016.62 1016.21 1017.21 1017.41 1017.75 1017.64 1017.58 1017.53 1017.68 1017.60 1017.76 1017.83 1017.28 1016.80 1015.90 1015.80 1015.89 1016.35 1016.92 1017.98 1018.95
1016.08 1016.49 1017.16 1017.94 1018.88 1017.92 1017.77 1016.80 1017.13 1017.60 1017.26 1014.54 1013.46 1012.23 1013.10 1014.05 1014.57 1014.43 1014.77 1015.30 1016.23 1016.40 1017.12 1016.97 1016.30 1016.37 1016.88 1017.00 1017.29 1017.31 1017.02 1017.26 1017.77 1018.46 1018.42 1018.08 1016.61 1015.98 1015.37 1015.23 1015.22 1015.16 1015.94 1016.94 1018.36
1015.77 1015.90 1016.43 1017.16 1016.60 1017.04 1016.28 1016.35 1017.02 1017.81 1016.99 1013.10 1012.59 1012.36 1012.56 1013.59 1013.68 1014.65 1014.64 1014.94 1015.24 1015.84 1016.41 1015.52 1015.76 1016.20 1016.45 1016.28 1016.72 1016.99 1017.04 1017.58 1018.09 1018.75 1019.03 1018.68 1018.36 1014.88 1014.69 1014.54 1014.08 1013.78 1014.91 1016.02 1017.24
1015.80 1015.55 1016.01 1016.49 1016.12 1015.61 1015.52 1016.60 1017.26 1018.00 1014.89 1012.96 1012.75 1012.79 1013.49 1013.89 1014.53 1015.09 1015.07 1015.00 1015.05 1015.52 1015.48 1015.34 1015.28 1015.47 1015.56 1016.20 1016.32 1017.10 1017.71 1018.54 1019.12 1019.69 1019.44 1018.51 1018.43 1013.84 1014.08 1012.93 1012.64 1013.12 1014.33 1015.70 1017.03
1015.58 1015.51 1015.54 1015.22 1015.05 1015.71 1015.52 1017.33 1018.05 1016.38 1012.66 1012.73 1012.96 1013.12 1013.33 1013.91 1014.88 1014.99 1015.26 1015.30 1015.01 1015.81 1015.35 1015.55 1015.32 1015.26 1015.31 1016.24 1016.68 1017.04 1018.33 1019.79 1020.60 1020.85 1018.86 1017.78 1017.53 1013.28 1012.90 1012.21 1012.17 1012.76 1013.81 1015.21 1016.47
1015.25 1014.91 1014.67 1014.52 1014.69 1015.64 1015.76 1017.15 1016.20 1014.47 1013.13 1012.32 1012.47 1013.25 1013.68 1013.87 1014.71 1015.05 1015.25 1015.43 1015.01 1014.74 1014.73 1015.04 1015.19 1014.85 1014.79 1014.88 1015.67 1016.83 1017.46 1018.68 1019.62 1020.41 1019.33 1018.40 1016.13 1012.88 1011.76 1011.54 1011.91 1012.31 1013.12 1014.67 1016.17
1014.76 1014.35 1014.11 1013.71 1014.20 1014.79 1014.67 1014.99 1013.43 1012.68 1012.22 1012.09 1012.73 1013.35 1013.68 1013.84 1014.47 1015.20 1015.14 1014.44 1013.70 1013.87 1014.04 1014.27 1014.19 1013.79 1014.11 1014.51 1014.93 1016.82 1017.12 1017.34 1018.98 1020.32 1019.87 1017.09 1014.58 1012.69 1012.12 1012.05 1012.38 1012.69 1013.51 1014.55 1015.56
1014.93 1014.14 1012.87 1012.58 1013.55 1013.92 1013.30 1012.95 1012.79 1011.55 1010.34 1011.08 1011.38 1011.87 1012.66 1013.45 1014.25 1014.61 1014.48 1012.68 1012.81 1012.55 1012.90 1013.04 1013.91 1014.41 1014.66 1014.60 1015.30 1015.56 1016.32 1017.87 1019.17 1020.08 1018.91 1016.10 1014.33 1012.25 1011.98 1011.98 1012.40 1013.16 1013.84 1014.81 1015.79
1015.00 1013.98 1011.67 1011.67 1012.90 1012.59 1010.95 1010.89 1011.11 1010.94 1010.41 1010.84 1011.20 1011.05 1011.63 1012.58 1013.16 1013.40 1012.76 1011.88 1011.56 1011.78 1012.32 1012.64 1013.38 1015.10 1015.16 1014.71 1014.51 1015.49 1015.84 1016.39 1017.13 1018.04 1017.48 1015.77 1011.75 1010.20 1010.24 1010.53 1011.58 1012.44 1013.12 1013.97 1015.13
1014.54 1013.47 1011.34 1011.64 1012.23 1011.24 1009.81 1010.00 1010.02 1010.09 1010.34 1010.09 1010.16 1010.23 1010.81 1011.45 1011.84 1012.20 1011.59 1010.65 1010.01 1010.50 1011.68 1011.74 1012.90 1014.55 1014.59 1014.28 1014.32 1013.99 1014.23 1014.78 1015.67 1016.25 1016.02 1015.00 1008.28 1009.47 1009.59 1010.18 1010.90 1011.70 1012.66 1013.59 1014.49
1013.81 1012.82 1011.25 1011.52 1011.06 1010.57 1010.18 1009.55 1009.76 1009.42 1009.45 1009.47 1009.54 1009.66 1009.89 1009.97 1011.02 1010.63 1010.28 1009.86 1009.79 1010.22 1010.47 1011.35 1012.46 1013.86 1014.29 1014.74 1014.39 1014.07 1014.00 1013.33 1013.75 1014.58 1013.34 1014.40 1007.42 1009.28 1009.24 1009.90 1010.60 1011.61 1012.50 1013.22 1014.15
1013.61 1012.79 1011.70 1011.31 1010.62 1010.16 1010.01 1009.26 1009.04 1008.97 1009.25 1008.69 1008.45 1008.94 1009.55 1009.22 1009.35 1009.37 1009.09 1009.20 1009.08 1009.21 1009.70 1010.00 1011.19 1011.26 1010.89 1011.35 1012.27 1013.41 1013.00 1013.08 1013.35 1013.07 1012.25 1010.11 1008.42 1009.21 1009.36 1010.00 1010.70 1011.40 1012.02 1012.96 1013.84
1012.61 1012.00 1010.90 1010.47 1010.43 1010.13 1010.32 1010.01 1009.20 1009.06 1008.73 1008.15 1008.38 1008.55 1008.44 1008.76 1008.79 1008.76 1008.97 1009.12 1008.89 1008.96 1009.35 1009.77 1010.66 1011.08 1010.40 1010.84 1011.26 1011.43 1011.56 1011.94 1011.85 1009.80 1011.21 1006.36 1008.51 1008.19 1008.84 1009.33 1009.69 1010.75 1011.91 1012.73 1013.40
1011.93 1011.62 1011.03 1010.47 1010.11 1009.96 1009.93 1009.51 1009.52 1009.60 1009.48 1008.27 1007.93 1008.09 1008.47 1008.05 1007.64 1007.72 1008.25 1008.55 1008.60 1009.70 1009.31 1009.78 1010.12 1010.86 1010.47 1010.72 1010.96 1011.38 1011.13 1010.27 1010.17 1009.83 1009.64 1008.50 1006.35 1007.31 1007.75 1008.47 1009.50 1009.87 1010.70 1011.44 1011.89
1011.17 1011.00 1011.18 1010.58 1010.33 1010.31 1009.55 1009.10 1008.83 1009.38 1009.07 1008.96 1008.81 1008.86 1008.10 1007.11 1007.77 1007.53 1007.73 1008.04 1008.25 1008.78 1009.19 1009.91 1010.51 1011.22 1009.91 1010.47 1011.12 1010.90 1007.60 1009.42 1009.04 1008.50 1008.30 1008.05 1003.79 1007.62 1007.81 1008.29 1008.79 1009.28 1009.67 1009.98 1010.36
Wind_Speed
6 7 8 8 9 9 10 10 11 12 12 13 14 12 12 13 14 1 2 2 3 5 5 5 3 3 3 2 3 3 6 2 5 3 5 4 4 2 2 6 5 5 4 5 7
4 5 6 7 8 9 10 11 11 12 12 13 15 13 13 12 3 1 2 3 2 3 3 4 4 3 3 2 3 5 4 1 1 3 4 5 4 7 5 4 4 5 4 5 5
2 3 4 6 7 8 9 10 10 11 13 13 14 14 12 8 2 2 1 1 1 3 2 2 4 2 3 3 2 2 4 3 3 2 5 4 4 3 6 3 5 8 9 5 7
2 2 3 4 6 7 8 9 10 10 13 14 15 15 16 2 2 0 1 0 2 4 3 1 2 2 2 2 2 3 1 3 2 3 3 2 2 2 3 5 4 10 9 7 9
3 3 4 5 5 7 8 9 10 11 12 14 15 14 5 3 2 2 1 2 2 2 1 1 2 2 2 2 2 2 2 2 4 2 1 1 1 3 5 7 8 9 9 9 8
5 4 4 5 6 6 8 9 10 10 12 13 13 15 2 2 3 5 4 1 2 1 1 4 2 1 1 2 4 2 3 3 4 5 2 3 2 1 4 8 9 9 9 8 8
8 5 5 5 6 7 7 9 10 10 11 13 11 5 2 8 1 5 4 0 2 2 2 2 3 4 1 1 1 2 2 5 5 6 3 4 6 10 7 9 10 9 8 8 7
8 9 5 6 5 7 8 9 9 10 11 10 10 2 6 1 2 4 3 2 2 2 3 2 3 3 3 1 1 1 1 1 4 9 3 5 9 4 10 12 10 10 8 8 7
9 9 7 6 6 6 8 10 11 11 10 9 4 1 7 2 3 5 4 5 3 3 4 1 3 3 2 5 5 3 4 6 6 5 5 4 7 1 5 7 9 9 9 8 7
11 10 9 7 6 6 8 10 9 9 4 2 3 3 3 4 2 4 1 7 3 4 4 3 4 3 2 4 6 6 4 5 5 7 4 5 11 4 9 8 11 10 10 10 10
12 12 11 8 6 4 5 4 2 2 3 10 7 4 4 1 3 2 2 4 4 2 5 3 4 9 13 10 6 3 3 4 5 4 5 10 9 10 11 8 9 10 11 13 12
14 13 12 10 7 4 1 2 3 2 7 11 10 7 4 6 3 4 5 6 5 6 5 3 9 11 8 8 8 8 8 9 6 4 5 6 11 10 7 14 15 18 16 14 9
15 14 14 10 8 3 3 6 2 2 3 7 10 9 8 10 8 11 10 6 5 7 9 9 8 8 9 6 7 7 7 5 8 1 3 4 8 8 9 11 10 15 11 11 18
10 16 15 10 5 4 5 6 6 4 3 8 7 9 6 9 7 7 15 8 5 13 6 10 8 4 6 7 8 8 7 6 5 1 6 4 10 7 5 10 10 18 14 17 16
9 14 18 21 7 7 5 6 6 2 5 7 2 4 7 12 8 1 1 2 10 10 8 11 8 9 14 9 9 7 2 2 3 4 1 3 5 7 9 13 19 17 15 15 17
7 9 20 15 2 2 6 7 3 4 15 5 3 4 8 3 3 4 4 2 3 4 4 6 2 7 8 2 6 7 6 6 5 3 6 12 9 7 10 16 12 6 9 15 17
6 6 14 7 7 3 12 7 3 7 3 6 6 7 7 9 4 5 8 10 11 7 12 3 5 3 5 6 3 5 8 2 4 1 10 5 9 19 5 9 10 11 12 14 16
8 6 6 9 5 11 7 5 7 10 11 3 5 4 7 7 5 7 8 9 10 3 4 12 7 14 8 9 9 8 10 9 9 6 5 3 10 9 10 7 6 8 16 17 17
10 3 4 5 9 11 8 6 12 9 8 5 3 4 6 4 7 5 8 7 10 15 11 7 8 4 1 4 12 6 9 4 2 2 2 7 8 8 4 7 3 7 13 16 17
2 4 5 11 13 10 13 14 9 8 5 15 18 8 11 10 7 8 11 7 8 18 7 5 2 3 1 5 3 7 7 3 1 3 7 5 8 11 6 13 8 8 11 11 12
2 4 4 11 9 8 13 15 13 10 11 7 7 8 8 10 9 8 8 4 13 13 22 5 4 2 3 7 14 6 5 5 5 6 6 4 10 7 11 12 12 14 15 15 16
3 4 3 9 8 4 12 13 7 12 15 8 10 9 10 10 12 12 14 8 10 14 16 13 4 5 10 4 3 3 7 7 7 7 6 3 23 5 3 4 9 11 13 13 15
3 3 3 8 8 13 9 12 12 7 16 16 14 11 15 15 8 11 9 9 9 15 13 11 6 2 5 3 3 6 9 17 1 4 16 6 19 3 2 3 6 9 9 12 14
2 3 4 6 7 7 11 17 16 14 20 18 12 13 13 12 18 8 11 9 10 15 12 13 6 15 21 6 9 8 10 13 18 11 6 27 25 1 4 6 6 8 8 10 14
4 5 5 5 11 14 12 4 3 3 13 21 11 22 19 23 17 25 19 2 1 5 12 13 14 8 18 5 5 7 14 20 23 31 16 31 26 16 10 12 11 8 9 11 14
5 4 2 4 3 9 16 15 18 15 4 7 18 20 25 22 20 15 21 18 9 5 12 3 10 12 21 9 8 8 9 20 24 23 27 27 37 7 9 6 8 13 15 17 17
4 2 1 4 4 6 7 9 12 10 10 14 13 13 19 24 22 19 16 11 4 10 8 11 7 5 20 9 8 9 36 21 20 18 22 27 41 5 12 11 9 11 15 19 19
Wind_Direction
51 39 29 21 11 6 359 -0 359 356 354 349 342 335 334 334 316 111 79 282 296 311 334 300 309 282 14 67 48 62 60 342 315 126 162 184 117 55 140 99 59 21 100 157 170
48 49 27 19 9 358 357 354 353 351 347 343 336 333 332 337 307 278 241 278 8 12 3 357 355 358 27 60 22 81 92 263 347 340 153 169 118 157 108 127 70 64 65 92 86
29 15 29 9 2 356 350 348 346 345 343 338 333 326 326 324 292 252 268 272 91 334 282 307 312 29 58 62 40 28 152 306 350 69 36 135 107 180 133 147 202 175 161 132 98
304 340 348 4 352 346 345 342 340 341 340 335 329 325 320 223 152 165 275 254 268 313 327 259 355 41 92 99 83 57 150 92 313 26 43 74 99 116 91 149 113 126 144 126 121
272 300 315 326 338 339 339 338 336 338 336 332 328 331 353 0 251 172 177 226 277 309 15 1 52 58 89 88 101 129 271 100 123 88 41 26 133 183 147 154 125 121 112 129 130
260 276 296 312 319 329 329 329 331 332 330 329 331 326 11 288 141 145 149 172 266 294 0 41 93 116 108 93 126 185 343 286 191 186 210 173 257 132 176 155 141 136 139 139 137
259 260 279 291 308 316 320 320 321 321 321 322 332 324 338 236 241 140 159 111 4 26 116 54 22 80 15 96 250 90 332 305 230 196 218 151 290 226 177 164 156 160 154 145 152
254 259 253 277 291 306 310 309 306 305 310 310 318 323 252 17 347 136 135 53 34 33 84 36 20 88 85 202 22 204 102 297 267 156 196 117 267 277 172 155 175 173 171 161 167
230 239 242 260 278 295 301 297 292 294 293 300 328 198 266 332 158 205 155 145 94 45 35 34 63 126 55 95 11 322 230 214 299 169 127 159 264 212 158 169 186 192 185 176 171
217 225 232 231 265 287 298 281 290 320 275 236 266 360 237 213 153 129 76 142 125 110 53 76 60 95 45 102 219 210 225 259 229 222 154 185 256 224 209 192 204 199 188 187 183
215 215 219 225 236 273 337 334 344 275 258 197 186 218 136 38 21 153 184 132 106 105 158 210 123 202 202 195 200 212 225 249 268 227 146 217 245 230 217 222 216 213 203 196 187
215 209 214 204 201 214 105 242 247 204 297 237 242 260 153 174 108 218 129 148 150 191 132 72 229 223 194 204 217 246 258 267 288 205 166 261 249 250 203 224 209 210 209 196 158
207 205 205 196 175 183 204 220 87 22 260 268 199 199 180 156 199 191 151 165 167 169 192 177 217 196 191 226 197 217 205 231 224 255 259 289 269 246 241 224 216 227 217 191 174
239 202 193 167 184 166 222 226 254 8 288 264 212 239 129 129 236 167 192 152 191 193 189 229 223 167 166 216 181 236 207 207 239 199 247 158 281 250 232 243 215 227 196 186 176
321 215 175 172 157 173 228 177 129 70 289 237 196 314 156 164 137 246 138 115 174 181 151 229 182 192 224 208 167 230 115 169 212 197 313 251 296 261 210 249 251 236 212 186 173
279 246 189 198 259 202 124 111 106 179 237 203 108 133 125 220 42 86 127 38 151 177 267 213 199 160 193 84 163 152 78 41 40 81 256 229 202 219 224 233 255 230 187 169 165
290 247 200 173 200 185 125 112 136 216 337 192 158 164 170 173 137 159 156 183 176 164 219 178 206 178 142 102 32 125 105 297 323 304 245 229 219 252 261 249 231 214 183 168 164
318 263 222 223 196 164 163 103 199 213 217 100 129 102 182 146 196 167 142 188 250 237 128 194 255 170 190 184 168 194 163 163 214 210 260 14 240 248 227 249 280 221 181 166 166
311 219 226 180 190 172 203 207 199 180 173 185 82 143 212 147 139 145 201 223 200 193 194 173 250 80 75 158 154 203 209 183 15 35 16 217 282 294 253 266 264 180 165 176 172
327 264 223 165 175 190 223 199 241 230 108 202 216 159 181 187 157 174 177 201 212 196 215 210 248 7 338 85 58 148 160 96 74 223 253 261 248 231 214 242 213 198 186 180 171
307 269 237 160 163 213 216 211 208 229 225 144 248 221 192 175 185 203 217 255 194 187 195 180 168 310 119 204 176 160 196 198 134 162 196 286 257 213 217 222 199 205 194 182 179
229 246 239 153 199 228 218 212 207 201 226 252 209 220 223 182 193 205 213 222 185 163 186 203 137 186 207 253 248 278 188 166 158 219 237 180 260 172 132 252 196 203 193 186 182
228 258 271 177 219 225 251 217 231 181 200 223 215 217 218 232 211 218 205 209 179 166 168 171 200 161 324 339 355 207 217 213 255 61 226 180 262 21 98 169 202 185 183 182 173
224 248 220 206 250 240 233 240 227 209 233 223 223 221 251 228 233 239 231 198 192 191 177 165 171 205 232 215 152 198 201 208 208 227 217 235 260 90 203 223 214 210 178 172 177
200 228 221 201 226 230 241 266 311 262 227 202 229 239 226 233 229 239 233 219 13 212 183 165 214 196 239 178 151 195 202 203 207 225 213 257 243 232 217 218 215 180 164 173 185
218 175 292 267 308 226 217 236 240 236 244 239 222 225 227 240 216 232 231 218 192 223 174 180 230 203 252 222 223 229 218 215 226 235 239 255 262 151 232 236 180 193 184 191 196
222 158 136 225 226 225 231 233 240 207 227 231 269 266 245 230 237 244 255 241 228 168 176 162 183 154 244 175 229 250 234 223 229 231 224 235 246 204 243 228 216 210 195 200 200